owner,sensor,date,latitude,longitude,vertical_datum,wind_speed,wind_to_direction,wind_speed_of_gust,qcFlag 
WAVCIS,ioos:station:WAVCIS:CSI15:1,2010-08-01T00:00:00Z,28.8332,-90.8320,10.0,5.262,254.0,,'11111222,11111222,99999999' 
WAVCIS,ioos:station:WAVCIS:CSI15:1,2010-08-01T01:00:00Z,28.8332,-90.8320,10.0,5.042,247.0,,'11111222,11111222,99999999' 
WAVCIS,ioos:station:WAVCIS:CSI15:1,2010-08-01T02:00:00Z,28.8332,-90.8320,10.0,5.333,243.0,,'11111222,11111222,99999999' 
WAVCIS,ioos:station:WAVCIS:CSI15:1,2010-08-01T03:00:00Z,28.8332,-90.8320,10.0,5.663,249.0,,'11111222,11111222,99999999' 
WAVCIS,ioos:station:WAVCIS:CSI15:1,2010-08-01T04:00:00Z,28.8332,-90.8320,10.0,5.883,249.0,,'11111222,11111222,99999999' 
WAVCIS,ioos:station:WAVCIS:CSI15:1,2010-08-01T05:00:00Z,28.8332,-90.8320,10.0,5.654,249.0,,'11111222,11111222,99999999' 
WAVCIS,ioos:station:WAVCIS:CSI15:1,2010-08-01T06:00:00Z,28.8332,-90.8320,10.0,5.77,271.0,,'11111222,11111222,99999999' 
WAVCIS,ioos:station:WAVCIS:CSI15:1,2010-08-01T07:00:00Z,28.8332,-90.8320,10.0,5.7,271.0,,'11111222,11111222,99999999' 
WAVCIS,ioos:station:WAVCIS:CSI15:1,2010-08-01T08:00:00Z,28.8332,-90.8320,10.0,6.117,280.0,,'11111222,11111222,99999999' 
WAVCIS,ioos:station:WAVCIS:CSI15:1,2010-08-01T09:00:00Z,28.8332,-90.8320,10.0,6.189,281.0,,'11111222,11111222,99999999' 
WAVCIS,ioos:station:WAVCIS:CSI15:1,2010-08-01T10:00:00Z,28.8332,-90.8320,10.0,6.903,285.0,,'11111222,11111222,99999999' 
WAVCIS,ioos:station:WAVCIS:CSI15:1,2010-08-01T11:00:00Z,28.8332,-90.8320,10.0,7.28,285.0,,'11111222,11111222,99999999' 
WAVCIS,ioos:station:WAVCIS:CSI15:1,2010-08-01T12:00:00Z,28.8332,-90.8320,10.0,6.182,297.0,,'11111222,11111222,99999999' 
WAVCIS,ioos:station:WAVCIS:CSI15:1,2010-08-01T13:00:00Z,28.8332,-90.8320,10.0,7.15,304.0,,'11111222,11111222,99999999' 
WAVCIS,ioos:station:WAVCIS:CSI15:1,2010-08-01T14:00:00Z,28.8332,-90.8320,10.0,6.351,310.0,,'11111222,11111222,99999999' 
WAVCIS,ioos:station:WAVCIS:CSI15:1,2010-08-01T15:00:00Z,28.8332,-90.8320,10.0,5.672,315.0,,'11111222,11111222,99999999' 
WAVCIS,ioos:station:WAVCIS:CSI15:1,2010-08-01T16:00:00Z,28.8332,-90.8320,10.0,4.328,318.0,,'11111222,11111222,99999999' 
WAVCIS,ioos:station:WAVCIS:CSI15:1,2010-08-01T17:00:00Z,28.8332,-90.8320,10.0,2.531,312.0,,'11111222,11111222,99999999' 
WAVCIS,ioos:station:WAVCIS:CSI15:1,2010-08-01T18:00:00Z,28.8332,-90.8320,10.0,1.001,344.0,,'11111222,11111222,99999999' 
WAVCIS,ioos:station:WAVCIS:CSI15:1,2010-08-01T19:00:00Z,28.8332,-90.8320,10.0,0.193,215.0,,'11111222,11111222,99999999' 
WAVCIS,ioos:station:WAVCIS:CSI15:1,2010-08-01T20:00:00Z,28.8332,-90.8320,10.0,1.409,210.0,,'11111222,11111222,99999999' 
WAVCIS,ioos:station:WAVCIS:CSI15:1,2010-08-01T21:00:00Z,28.8332,-90.8320,10.0,1.153,199.0,,'11111222,11111222,99999999' 
WAVCIS,ioos:station:WAVCIS:CSI15:1,2010-08-01T22:00:00Z,28.8332,-90.8320,10.0,1.052,203.0,,'11111222,11111222,99999999' 
WAVCIS,ioos:station:WAVCIS:CSI15:1,2010-08-01T23:00:00Z,28.8332,-90.8320,10.0,1.221,215.0,,'11111222,11111222,99999999' 
WAVCIS,ioos:station:WAVCIS:CSI15:1,2010-08-02T00:00:00Z,28.8332,-90.8320,10.0,1.3,214.0,,'11111222,11111222,99999999' 
WAVCIS,ioos:station:WAVCIS:CSI15:1,2010-08-02T01:00:00Z,28.8332,-90.8320,10.0,1.667,213.0,,'11111222,11111222,99999999' 
WAVCIS,ioos:station:WAVCIS:CSI15:1,2010-08-02T02:00:00Z,28.8332,-90.8320,10.0,1.767,196.0,,'11111222,11111222,99999999' 
WAVCIS,ioos:station:WAVCIS:CSI15:1,2010-08-02T03:00:00Z,28.8332,-90.8320,10.0,0.456,206.0,,'11111222,11111222,99999999' 
WAVCIS,ioos:station:WAVCIS:CSI15:1,2010-08-02T04:00:00Z,28.8332,-90.8320,10.0,1.592,266.0,,'11111222,11111222,99999999' 
WAVCIS,ioos:station:WAVCIS:CSI15:1,2010-08-02T05:00:00Z,28.8332,-90.8320,10.0,2.248,241.0,,'11111222,11111222,99999999' 
WAVCIS,ioos:station:WAVCIS:CSI15:1,2010-08-02T06:00:00Z,28.8332,-90.8320,10.0,2.39,247.0,,'11111222,11111222,99999999' 
WAVCIS,ioos:station:WAVCIS:CSI15:1,2010-08-02T07:00:00Z,28.8332,-90.8320,10.0,2.819,281.0,,'11111222,11111222,99999999' 
WAVCIS,ioos:station:WAVCIS:CSI15:1,2010-08-02T08:00:00Z,28.8332,-90.8320,10.0,2.53,279.0,,'11111222,11111222,99999999' 
WAVCIS,ioos:station:WAVCIS:CSI15:1,2010-08-02T09:00:00Z,28.8332,-90.8320,10.0,3.651,296.0,,'11111222,11111222,99999999' 
WAVCIS,ioos:station:WAVCIS:CSI15:1,2010-08-02T10:00:00Z,28.8332,-90.8320,10.0,4.092,303.0,,'11111222,11111222,99999999' 
WAVCIS,ioos:station:WAVCIS:CSI15:1,2010-08-02T11:00:00Z,28.8332,-90.8320,10.0,4.854,304.0,,'11111222,11111222,99999999' 
WAVCIS,ioos:station:WAVCIS:CSI15:1,2010-08-02T12:00:00Z,28.8332,-90.8320,10.0,4.854,304.0,,'11111222,11111222,99999999' 
WAVCIS,ioos:station:WAVCIS:CSI15:1,2010-08-02T13:00:00Z,28.8332,-90.8320,10.0,4.828,308.0,,'11111222,11111222,99999999' 
WAVCIS,ioos:station:WAVCIS:CSI15:1,2010-08-02T14:00:00Z,28.8332,-90.8320,10.0,4.645,316.0,,'11111222,11111222,99999999' 
WAVCIS,ioos:station:WAVCIS:CSI15:1,2010-08-02T15:00:00Z,28.8332,-90.8320,10.0,5.233,324.0,,'11111222,11111222,99999999' 
WAVCIS,ioos:station:WAVCIS:CSI15:1,2010-08-02T16:00:00Z,28.8332,-90.8320,10.0,3.801,333.0,,'11111222,11111222,99999999' 
WAVCIS,ioos:station:WAVCIS:CSI15:1,2010-08-02T17:00:00Z,28.8332,-90.8320,10.0,2.509,349.0,,'11111222,11111222,99999999' 
WAVCIS,ioos:station:WAVCIS:CSI15:1,2010-08-02T18:00:00Z,28.8332,-90.8320,10.0,1.501,46.0,,'11111222,11111222,99999999' 
WAVCIS,ioos:station:WAVCIS:CSI15:1,2010-08-02T19:00:00Z,28.8332,-90.8320,10.0,1.362,93.0,,'11111222,11111222,99999999' 
WAVCIS,ioos:station:WAVCIS:CSI15:1,2010-08-02T20:00:00Z,28.8332,-90.8320,10.0,2.427,119.0,,'11111222,11111222,99999999' 
WAVCIS,ioos:station:WAVCIS:CSI15:1,2010-08-02T21:00:00Z,28.8332,-90.8320,10.0,3.182,122.0,,'11111222,11111222,99999999' 
WAVCIS,ioos:station:WAVCIS:CSI15:1,2010-08-02T22:00:00Z,28.8332,-90.8320,10.0,3.551,118.0,,'11111222,11111222,99999999' 
WAVCIS,ioos:station:WAVCIS:CSI15:1,2010-08-02T23:00:00Z,28.8332,-90.8320,10.0,3.821,124.0,,'11111222,11111222,99999999' 
WAVCIS,ioos:station:WAVCIS:CSI15:1,2010-08-03T00:00:00Z,28.8332,-90.8320,10.0,3.213,144.0,,'11111222,11111222,99999999' 
WAVCIS,ioos:station:WAVCIS:CSI15:1,2010-08-03T01:00:00Z,28.8332,-90.8320,10.0,3.524,138.0,,'11111222,11111222,99999999' 
WAVCIS,ioos:station:WAVCIS:CSI15:1,2010-08-03T02:00:00Z,28.8332,-90.8320,10.0,3.976,127.0,,'11111222,11111222,99999999' 
WAVCIS,ioos:station:WAVCIS:CSI15:1,2010-08-03T03:00:00Z,28.8332,-90.8320,10.0,4.435,137.0,,'11111222,11111222,99999999' 
WAVCIS,ioos:station:WAVCIS:CSI15:1,2010-08-03T04:00:00Z,28.8332,-90.8320,10.0,4.924,139.0,,'11111222,11111222,99999999' 
WAVCIS,ioos:station:WAVCIS:CSI15:1,2010-08-03T05:00:00Z,28.8332,-90.8320,10.0,5.052,154.0,,'11111222,11111222,99999999' 
WAVCIS,ioos:station:WAVCIS:CSI15:1,2010-08-03T06:00:00Z,28.8332,-90.8320,10.0,4.755,162.0,,'11111222,11111222,99999999' 
WAVCIS,ioos:station:WAVCIS:CSI15:1,2010-08-03T07:00:00Z,28.8332,-90.8320,10.0,3.854,173.0,,'11111222,11111222,99999999' 
WAVCIS,ioos:station:WAVCIS:CSI15:1,2010-08-03T08:00:00Z,28.8332,-90.8320,10.0,4.529,172.0,,'11111222,11111222,99999999' 
WAVCIS,ioos:station:WAVCIS:CSI15:1,2010-08-03T09:00:00Z,28.8332,-90.8320,10.0,3.36,163.0,,'11111222,11111222,99999999' 
WAVCIS,ioos:station:WAVCIS:CSI15:1,2010-08-03T10:00:00Z,28.8332,-90.8320,10.0,3.34,183.0,,'11111222,11111222,99999999' 
WAVCIS,ioos:station:WAVCIS:CSI15:1,2010-08-03T11:00:00Z,28.8332,-90.8320,10.0,2.596,190.0,,'11111222,11111222,99999999' 
WAVCIS,ioos:station:WAVCIS:CSI15:1,2010-08-03T12:00:00Z,28.8332,-90.8320,10.0,2.687,180.0,,'11111222,11111222,99999999' 
WAVCIS,ioos:station:WAVCIS:CSI15:1,2010-08-03T13:00:00Z,28.8332,-90.8320,10.0,3.52,182.0,,'11111222,11111222,99999999' 
WAVCIS,ioos:station:WAVCIS:CSI15:1,2010-08-03T14:00:00Z,28.8332,-90.8320,10.0,2.438,199.0,,'11111222,11111222,99999999' 
WAVCIS,ioos:station:WAVCIS:CSI15:1,2010-08-03T15:00:00Z,28.8332,-90.8320,10.0,0.979,246.0,,'11111222,11111222,99999999' 
WAVCIS,ioos:station:WAVCIS:CSI15:1,2010-08-03T16:00:00Z,28.8332,-90.8320,10.0,1.73,312.0,,'11111222,11111222,99999999' 
WAVCIS,ioos:station:WAVCIS:CSI15:1,2010-08-03T17:00:00Z,28.8332,-90.8320,10.0,3.079,13.0,,'11111222,11111222,99999999' 
WAVCIS,ioos:station:WAVCIS:CSI15:1,2010-08-03T18:00:00Z,28.8332,-90.8320,10.0,1.5,108.0,,'11111222,11111222,99999999' 
WAVCIS,ioos:station:WAVCIS:CSI15:1,2010-08-03T19:00:00Z,28.8332,-90.8320,10.0,0.95,38.0,,'11111222,11111222,99999999' 
WAVCIS,ioos:station:WAVCIS:CSI15:1,2010-08-03T20:00:00Z,28.8332,-90.8320,10.0,3.842,166.0,,'11111222,11111222,99999999' 
WAVCIS,ioos:station:WAVCIS:CSI15:1,2010-08-03T21:00:00Z,28.8332,-90.8320,10.0,4.044,128.0,,'11111222,11111222,99999999' 
WAVCIS,ioos:station:WAVCIS:CSI15:1,2010-08-03T22:00:00Z,28.8332,-90.8320,10.0,3.611,143.0,,'11111222,11111222,99999999' 
WAVCIS,ioos:station:WAVCIS:CSI15:1,2010-08-03T23:00:00Z,28.8332,-90.8320,10.0,3.488,143.0,,'11111222,11111222,99999999' 
WAVCIS,ioos:station:WAVCIS:CSI15:1,2010-08-04T00:00:00Z,28.8332,-90.8320,10.0,2.68,173.0,,'11111222,11111222,99999999' 
WAVCIS,ioos:station:WAVCIS:CSI15:1,2010-08-04T01:00:00Z,28.8332,-90.8320,10.0,3.326,168.0,,'11111222,11111222,99999999' 
WAVCIS,ioos:station:WAVCIS:CSI15:1,2010-08-04T02:00:00Z,28.8332,-90.8320,10.0,2.931,167.0,,'11111222,11111222,99999999' 
WAVCIS,ioos:station:WAVCIS:CSI15:1,2010-08-04T03:00:00Z,28.8332,-90.8320,10.0,2.042,166.0,,'11111222,11111222,99999999' 
WAVCIS,ioos:station:WAVCIS:CSI15:1,2010-08-04T04:00:00Z,28.8332,-90.8320,10.0,2.741,186.0,,'11111222,11111222,99999999' 
WAVCIS,ioos:station:WAVCIS:CSI15:1,2010-08-04T05:00:00Z,28.8332,-90.8320,10.0,3.617,191.0,,'11111222,11111222,99999999' 
WAVCIS,ioos:station:WAVCIS:CSI15:1,2010-08-04T06:00:00Z,28.8332,-90.8320,10.0,5.092,185.0,,'11111222,11111222,99999999' 
WAVCIS,ioos:station:WAVCIS:CSI15:1,2010-08-04T07:00:00Z,28.8332,-90.8320,10.0,3.64,209.0,,'11111222,11111222,99999999' 
WAVCIS,ioos:station:WAVCIS:CSI15:1,2010-08-04T08:00:00Z,28.8332,-90.8320,10.0,2.787,223.0,,'11111222,11111222,99999999' 
WAVCIS,ioos:station:WAVCIS:CSI15:1,2010-08-04T09:00:00Z,28.8332,-90.8320,10.0,3.289,278.0,,'11111222,11111222,99999999' 
WAVCIS,ioos:station:WAVCIS:CSI15:1,2010-08-04T10:00:00Z,28.8332,-90.8320,10.0,3.014,246.0,,'11111222,11111222,99999999' 
WAVCIS,ioos:station:WAVCIS:CSI15:1,2010-08-04T11:00:00Z,28.8332,-90.8320,10.0,2.916,262.0,,'11111222,11111222,99999999' 
WAVCIS,ioos:station:WAVCIS:CSI15:1,2010-08-04T12:00:00Z,28.8332,-90.8320,10.0,3.621,254.0,,'11111222,11111222,99999999' 
WAVCIS,ioos:station:WAVCIS:CSI15:1,2010-08-04T13:00:00Z,28.8332,-90.8320,10.0,2.824,251.0,,'11111222,11111222,99999999' 
WAVCIS,ioos:station:WAVCIS:CSI15:1,2010-08-04T14:00:00Z,28.8332,-90.8320,10.0,2.129,249.0,,'11111222,11111222,99999999' 
WAVCIS,ioos:station:WAVCIS:CSI15:1,2010-08-04T15:00:00Z,28.8332,-90.8320,10.0,3.058,279.0,,'11111222,11111222,99999999' 
WAVCIS,ioos:station:WAVCIS:CSI15:1,2010-08-04T16:00:00Z,28.8332,-90.8320,10.0,2.291,299.0,,'11111222,11111222,99999999' 
WAVCIS,ioos:station:WAVCIS:CSI15:1,2010-08-04T17:00:00Z,28.8332,-90.8320,10.0,2.389,326.0,,'11111222,11111222,99999999' 
WAVCIS,ioos:station:WAVCIS:CSI15:1,2010-08-04T18:00:00Z,28.8332,-90.8320,10.0,1.131,286.0,,'11111222,11111222,99999999' 
WAVCIS,ioos:station:WAVCIS:CSI15:1,2010-08-04T19:00:00Z,28.8332,-90.8320,10.0,1.457,290.0,,'11111222,11111222,99999999' 
WAVCIS,ioos:station:WAVCIS:CSI15:1,2010-08-04T20:00:00Z,28.8332,-90.8320,10.0,0.464,240.0,,'11111222,11111222,99999999' 
WAVCIS,ioos:station:WAVCIS:CSI15:1,2010-08-04T21:00:00Z,28.8332,-90.8320,10.0,1.862,229.0,,'11111222,11111222,99999999' 
WAVCIS,ioos:station:WAVCIS:CSI15:1,2010-08-04T22:00:00Z,28.8332,-90.8320,10.0,3.056,214.0,,'11111222,11111222,99999999' 
WAVCIS,ioos:station:WAVCIS:CSI15:1,2010-08-04T23:00:00Z,28.8332,-90.8320,10.0,1.581,236.0,,'11111222,11111222,99999999' 
WAVCIS,ioos:station:WAVCIS:CSI15:1,2010-08-05T00:00:00Z,28.8332,-90.8320,10.0,2.012,239.0,,'11111222,11111222,99999999' 
WAVCIS,ioos:station:WAVCIS:CSI15:1,2010-08-05T01:00:00Z,28.8332,-90.8320,10.0,2.091,215.0,,'11111222,11111222,99999999' 
WAVCIS,ioos:station:WAVCIS:CSI15:1,2010-08-05T02:00:00Z,28.8332,-90.8320,10.0,0.749,218.0,,'11111222,11111222,99999999' 
WAVCIS,ioos:station:WAVCIS:CSI15:1,2010-08-05T03:00:00Z,28.8332,-90.8320,10.0,1.899,220.0,,'11111222,11111222,99999999' 
WAVCIS,ioos:station:WAVCIS:CSI15:1,2010-08-05T04:00:00Z,28.8332,-90.8320,10.0,0.843,166.0,,'11111222,11111222,99999999' 
WAVCIS,ioos:station:WAVCIS:CSI15:1,2010-08-05T05:00:00Z,28.8332,-90.8320,10.0,2.045,242.0,,'11111222,11111222,99999999' 
WAVCIS,ioos:station:WAVCIS:CSI15:1,2010-08-05T06:00:00Z,28.8332,-90.8320,10.0,4.099,262.0,,'11111222,11111222,99999999' 
WAVCIS,ioos:station:WAVCIS:CSI15:1,2010-08-05T07:00:00Z,28.8332,-90.8320,10.0,4.159,273.0,,'11111222,11111222,99999999' 
WAVCIS,ioos:station:WAVCIS:CSI15:1,2010-08-05T08:00:00Z,28.8332,-90.8320,10.0,3.212,352.0,,'11111222,11111222,99999999' 
WAVCIS,ioos:station:WAVCIS:CSI15:1,2010-08-05T09:00:00Z,28.8332,-90.8320,10.0,2.732,343.0,,'11111222,11111222,99999999' 
WAVCIS,ioos:station:WAVCIS:CSI15:1,2010-08-05T10:00:00Z,28.8332,-90.8320,10.0,2.718,161.0,,'11111222,11111222,99999999' 
WAVCIS,ioos:station:WAVCIS:CSI15:1,2010-08-05T11:00:00Z,28.8332,-90.8320,10.0,10.34,220.0,,'11111222,11111222,99999999' 
WAVCIS,ioos:station:WAVCIS:CSI15:1,2010-08-05T12:00:00Z,28.8332,-90.8320,10.0,5.669,236.0,,'11111222,11111222,99999999' 
WAVCIS,ioos:station:WAVCIS:CSI15:1,2010-08-05T13:00:00Z,28.8332,-90.8320,10.0,4.151,227.0,,'11111222,11111222,99999999' 
WAVCIS,ioos:station:WAVCIS:CSI15:1,2010-08-05T14:00:00Z,28.8332,-90.8320,10.0,5.426,287.0,,'11111222,11111222,99999999' 
WAVCIS,ioos:station:WAVCIS:CSI15:1,2010-08-05T15:00:00Z,28.8332,-90.8320,10.0,3.253,300.0,,'11111222,11111222,99999999' 
WAVCIS,ioos:station:WAVCIS:CSI15:1,2010-08-05T16:00:00Z,28.8332,-90.8320,10.0,2.268,305.0,,'11111222,11111222,99999999' 
WAVCIS,ioos:station:WAVCIS:CSI15:1,2010-08-05T17:00:00Z,28.8332,-90.8320,10.0,2.485,260.0,,'11111222,11111222,99999999' 
WAVCIS,ioos:station:WAVCIS:CSI15:1,2010-08-05T18:00:00Z,28.8332,-90.8320,10.0,2.412,277.0,,'11111222,11111222,99999999' 
WAVCIS,ioos:station:WAVCIS:CSI15:1,2010-08-05T19:00:00Z,28.8332,-90.8320,10.0,2.805,281.0,,'11111222,11111222,99999999' 
WAVCIS,ioos:station:WAVCIS:CSI15:1,2010-08-05T20:00:00Z,28.8332,-90.8320,10.0,3.837,298.0,,'11111222,11111222,99999999' 
WAVCIS,ioos:station:WAVCIS:CSI15:1,2010-08-05T21:00:00Z,28.8332,-90.8320,10.0,3.597,297.0,,'11111222,11111222,99999999' 
WAVCIS,ioos:station:WAVCIS:CSI15:1,2010-08-05T22:00:00Z,28.8332,-90.8320,10.0,1.823,303.0,,'11111222,11111222,99999999' 
WAVCIS,ioos:station:WAVCIS:CSI15:1,2010-08-05T23:00:00Z,28.8332,-90.8320,10.0,1.483,295.0,,'11111222,11111222,99999999' 
WAVCIS,ioos:station:WAVCIS:CSI15:1,2010-08-06T00:00:00Z,28.8332,-90.8320,10.0,1.397,287.0,,'11111222,11111222,99999999' 
WAVCIS,ioos:station:WAVCIS:CSI15:1,2010-08-06T01:00:00Z,28.8332,-90.8320,10.0,1.433,230.0,,'11111222,11111222,99999999' 
WAVCIS,ioos:station:WAVCIS:CSI15:1,2010-08-06T02:00:00Z,28.8332,-90.8320,10.0,0.812,215.0,,'11111222,11111222,99999999' 
WAVCIS,ioos:station:WAVCIS:CSI15:1,2010-08-06T03:00:00Z,28.8332,-90.8320,10.0,0.37,246.0,,'11111222,11111222,99999999' 
WAVCIS,ioos:station:WAVCIS:CSI15:1,2010-08-06T04:00:00Z,28.8332,-90.8320,10.0,0.912,162.0,,'11111222,11111222,99999999' 
WAVCIS,ioos:station:WAVCIS:CSI15:1,2010-08-06T05:00:00Z,28.8332,-90.8320,10.0,1.951,174.0,,'11111222,11111222,99999999' 
WAVCIS,ioos:station:WAVCIS:CSI15:1,2010-08-06T06:00:00Z,28.8332,-90.8320,10.0,3.251,185.0,,'11111222,11111222,99999999' 
WAVCIS,ioos:station:WAVCIS:CSI15:1,2010-08-06T07:00:00Z,28.8332,-90.8320,10.0,3.022,207.0,,'11111222,11111222,99999999' 
WAVCIS,ioos:station:WAVCIS:CSI15:1,2010-08-06T08:00:00Z,28.8332,-90.8320,10.0,2.416,208.0,,'11111222,11111222,99999999' 
WAVCIS,ioos:station:WAVCIS:CSI15:1,2010-08-06T09:00:00Z,28.8332,-90.8320,10.0,6.334,239.0,,'11111222,11111222,99999999' 
WAVCIS,ioos:station:WAVCIS:CSI15:1,2010-08-06T10:00:00Z,28.8332,-90.8320,10.0,5.162,250.0,,'11111222,11111222,99999999' 
WAVCIS,ioos:station:WAVCIS:CSI15:1,2010-08-06T11:00:00Z,28.8332,-90.8320,10.0,4.588,225.0,,'11111222,11111222,99999999' 
WAVCIS,ioos:station:WAVCIS:CSI15:1,2010-08-06T12:00:00Z,28.8332,-90.8320,10.0,2.236,276.0,,'11111222,11111222,99999999' 
WAVCIS,ioos:station:WAVCIS:CSI15:1,2010-08-06T13:00:00Z,28.8332,-90.8320,10.0,2.764,254.0,,'11111222,11111222,99999999' 
WAVCIS,ioos:station:WAVCIS:CSI15:1,2010-08-06T14:00:00Z,28.8332,-90.8320,10.0,3.447,268.0,,'11111222,11111222,99999999' 
WAVCIS,ioos:station:WAVCIS:CSI15:1,2010-08-06T15:00:00Z,28.8332,-90.8320,10.0,2.302,323.0,,'11111222,11111222,99999999' 
WAVCIS,ioos:station:WAVCIS:CSI15:1,2010-08-06T16:00:00Z,28.8332,-90.8320,10.0,2.565,300.0,,'11111222,11111222,99999999' 
WAVCIS,ioos:station:WAVCIS:CSI15:1,2010-08-06T17:00:00Z,28.8332,-90.8320,10.0,2.463,251.0,,'11111222,11111222,99999999' 
WAVCIS,ioos:station:WAVCIS:CSI15:1,2010-08-06T18:00:00Z,28.8332,-90.8320,10.0,4.13,285.0,,'11111222,11111222,99999999' 
WAVCIS,ioos:station:WAVCIS:CSI15:1,2010-08-06T19:00:00Z,28.8332,-90.8320,10.0,3.332,272.0,,'11111222,11111222,99999999' 
WAVCIS,ioos:station:WAVCIS:CSI15:1,2010-08-06T20:00:00Z,28.8332,-90.8320,10.0,2.579,280.0,,'11111222,11111222,99999999' 
WAVCIS,ioos:station:WAVCIS:CSI15:1,2010-08-06T21:00:00Z,28.8332,-90.8320,10.0,2.54,266.0,,'11111222,11111222,99999999' 
WAVCIS,ioos:station:WAVCIS:CSI15:1,2010-08-06T22:00:00Z,28.8332,-90.8320,10.0,2.081,226.0,,'11111222,11111222,99999999' 
WAVCIS,ioos:station:WAVCIS:CSI15:1,2010-08-06T23:00:00Z,28.8332,-90.8320,10.0,3.329,235.0,,'11111222,11111222,99999999' 
WAVCIS,ioos:station:WAVCIS:CSI15:1,2010-08-07T00:00:00Z,28.8332,-90.8320,10.0,3.86,223.0,,'11111222,11111222,99999999' 
WAVCIS,ioos:station:WAVCIS:CSI15:1,2010-08-07T01:00:00Z,28.8332,-90.8320,10.0,3.868,228.0,,'11111222,11111222,99999999' 
WAVCIS,ioos:station:WAVCIS:CSI15:1,2010-08-07T02:00:00Z,28.8332,-90.8320,10.0,3.406,240.0,,'11111222,11111222,99999999' 
WAVCIS,ioos:station:WAVCIS:CSI15:1,2010-08-07T03:00:00Z,28.8332,-90.8320,10.0,3.434,234.0,,'11111222,11111222,99999999' 
WAVCIS,ioos:station:WAVCIS:CSI15:1,2010-08-07T04:00:00Z,28.8332,-90.8320,10.0,3.526,238.0,,'11111222,11111222,99999999' 
WAVCIS,ioos:station:WAVCIS:CSI15:1,2010-08-07T05:00:00Z,28.8332,-90.8320,10.0,3.267,224.0,,'11111222,11111222,99999999' 
WAVCIS,ioos:station:WAVCIS:CSI15:1,2010-08-07T06:00:00Z,28.8332,-90.8320,10.0,4.287,234.0,,'11111222,11111222,99999999' 
WAVCIS,ioos:station:WAVCIS:CSI15:1,2010-08-07T07:00:00Z,28.8332,-90.8320,10.0,5.569,218.0,,'11111222,11111222,99999999' 
WAVCIS,ioos:station:WAVCIS:CSI15:1,2010-08-07T08:00:00Z,28.8332,-90.8320,10.0,4.264,224.0,,'11111222,11111222,99999999' 
WAVCIS,ioos:station:WAVCIS:CSI15:1,2010-08-07T09:00:00Z,28.8332,-90.8320,10.0,5.437,214.0,,'11111222,11111222,99999999' 
WAVCIS,ioos:station:WAVCIS:CSI15:1,2010-08-07T10:00:00Z,28.8332,-90.8320,10.0,5.183,228.0,,'11111222,11111222,99999999' 
WAVCIS,ioos:station:WAVCIS:CSI15:1,2010-08-07T11:00:00Z,28.8332,-90.8320,10.0,4.729,239.0,,'11111222,11111222,99999999' 
WAVCIS,ioos:station:WAVCIS:CSI15:1,2010-08-07T12:00:00Z,28.8332,-90.8320,10.0,4.468,236.0,,'11111222,11111222,99999999' 
WAVCIS,ioos:station:WAVCIS:CSI15:1,2010-08-07T13:00:00Z,28.8332,-90.8320,10.0,4.893,267.0,,'11111222,11111222,99999999' 
WAVCIS,ioos:station:WAVCIS:CSI15:1,2010-08-07T14:00:00Z,28.8332,-90.8320,10.0,5.225,270.0,,'11111222,11111222,99999999' 
WAVCIS,ioos:station:WAVCIS:CSI15:1,2010-08-07T15:00:00Z,28.8332,-90.8320,10.0,5.447,282.0,,'11111222,11111222,99999999' 
WAVCIS,ioos:station:WAVCIS:CSI15:1,2010-08-07T16:00:00Z,28.8332,-90.8320,10.0,4.08,301.0,,'11111222,11111222,99999999' 
WAVCIS,ioos:station:WAVCIS:CSI15:1,2010-08-07T17:00:00Z,28.8332,-90.8320,10.0,4.118,298.0,,'11111222,11111222,99999999' 
WAVCIS,ioos:station:WAVCIS:CSI15:1,2010-08-07T18:00:00Z,28.8332,-90.8320,10.0,2.832,275.0,,'11111222,11111222,99999999' 
WAVCIS,ioos:station:WAVCIS:CSI15:1,2010-08-07T19:00:00Z,28.8332,-90.8320,10.0,2.534,263.0,,'11111222,11111222,99999999' 
WAVCIS,ioos:station:WAVCIS:CSI15:1,2010-08-07T20:00:00Z,28.8332,-90.8320,10.0,2.139,273.0,,'11111222,11111222,99999999' 
WAVCIS,ioos:station:WAVCIS:CSI15:1,2010-08-07T21:00:00Z,28.8332,-90.8320,10.0,2.339,247.0,,'11111222,11111222,99999999' 
WAVCIS,ioos:station:WAVCIS:CSI15:1,2010-08-07T22:00:00Z,28.8332,-90.8320,10.0,3.674,203.0,,'11111222,11111222,99999999' 
WAVCIS,ioos:station:WAVCIS:CSI15:1,2010-08-07T23:00:00Z,28.8332,-90.8320,10.0,4.025,207.0,,'11111222,11111222,99999999' 
WAVCIS,ioos:station:WAVCIS:CSI15:1,2010-08-08T00:00:00Z,28.8332,-90.8320,10.0,4.416,200.0,,'11111222,11111222,99999999' 
WAVCIS,ioos:station:WAVCIS:CSI15:1,2010-08-08T01:00:00Z,28.8332,-90.8320,10.0,4.704,205.0,,'11111222,11111222,99999999' 
WAVCIS,ioos:station:WAVCIS:CSI15:1,2010-08-08T02:00:00Z,28.8332,-90.8320,10.0,4.712,206.0,,'11111222,11111222,99999999' 
WAVCIS,ioos:station:WAVCIS:CSI15:1,2010-08-08T03:00:00Z,28.8332,-90.8320,10.0,4.664,202.0,,'11111222,11111222,99999999' 
WAVCIS,ioos:station:WAVCIS:CSI15:1,2010-08-08T04:00:00Z,28.8332,-90.8320,10.0,5.729,191.0,,'11111222,11111222,99999999' 
WAVCIS,ioos:station:WAVCIS:CSI15:1,2010-08-08T05:00:00Z,28.8332,-90.8320,10.0,5.12,194.0,,'11111222,11111222,99999999' 
WAVCIS,ioos:station:WAVCIS:CSI15:1,2010-08-08T06:00:00Z,28.8332,-90.8320,10.0,5.887,195.0,,'11111222,11111222,99999999' 
WAVCIS,ioos:station:WAVCIS:CSI15:1,2010-08-08T07:00:00Z,28.8332,-90.8320,10.0,5.66,196.0,,'11111222,11111222,99999999' 
WAVCIS,ioos:station:WAVCIS:CSI15:1,2010-08-08T08:00:00Z,28.8332,-90.8320,10.0,4.653,195.0,,'11111222,11111222,99999999' 
WAVCIS,ioos:station:WAVCIS:CSI15:1,2010-08-08T09:00:00Z,28.8332,-90.8320,10.0,4.258,201.0,,'11111222,11111222,99999999' 
WAVCIS,ioos:station:WAVCIS:CSI15:1,2010-08-08T10:00:00Z,28.8332,-90.8320,10.0,4.511,228.0,,'11111222,11111222,99999999' 
WAVCIS,ioos:station:WAVCIS:CSI15:1,2010-08-08T11:00:00Z,28.8332,-90.8320,10.0,4.472,238.0,,'11111222,11111222,99999999' 
WAVCIS,ioos:station:WAVCIS:CSI15:1,2010-08-08T12:00:00Z,28.8332,-90.8320,10.0,3.522,247.0,,'11111222,11111222,99999999' 
WAVCIS,ioos:station:WAVCIS:CSI15:1,2010-08-08T13:00:00Z,28.8332,-90.8320,10.0,2.895,251.0,,'11111222,11111222,99999999' 
WAVCIS,ioos:station:WAVCIS:CSI15:1,2010-08-08T14:00:00Z,28.8332,-90.8320,10.0,2.859,259.0,,'11111222,11111222,99999999' 
WAVCIS,ioos:station:WAVCIS:CSI15:1,2010-08-08T15:00:00Z,28.8332,-90.8320,10.0,2.054,240.0,,'11111222,11111222,99999999' 
WAVCIS,ioos:station:WAVCIS:CSI15:1,2010-08-08T16:00:00Z,28.8332,-90.8320,10.0,1.342,255.0,,'11111222,11111222,99999999' 
WAVCIS,ioos:station:WAVCIS:CSI15:1,2010-08-08T17:00:00Z,28.8332,-90.8320,10.0,1.396,216.0,,'11111222,11111222,99999999' 
WAVCIS,ioos:station:WAVCIS:CSI15:1,2010-08-08T18:00:00Z,28.8332,-90.8320,10.0,1.303,206.0,,'11111222,11111222,99999999' 
WAVCIS,ioos:station:WAVCIS:CSI15:1,2010-08-08T19:00:00Z,28.8332,-90.8320,10.0,1.892,218.0,,'11111222,11111222,99999999' 
WAVCIS,ioos:station:WAVCIS:CSI15:1,2010-08-08T20:00:00Z,28.8332,-90.8320,10.0,3.16,200.0,,'11111222,11111222,99999999' 
WAVCIS,ioos:station:WAVCIS:CSI15:1,2010-08-08T21:00:00Z,28.8332,-90.8320,10.0,4.898,248.0,,'11111222,11111222,99999999' 
WAVCIS,ioos:station:WAVCIS:CSI15:1,2010-08-08T22:00:00Z,28.8332,-90.8320,10.0,3.795,210.0,,'11111222,11111222,99999999' 
WAVCIS,ioos:station:WAVCIS:CSI15:1,2010-08-08T23:00:00Z,28.8332,-90.8320,10.0,3.857,213.0,,'11111222,11111222,99999999' 
WAVCIS,ioos:station:WAVCIS:CSI15:1,2010-08-09T00:00:00Z,28.8332,-90.8320,10.0,3.968,237.0,,'11111222,11111222,99999999' 
WAVCIS,ioos:station:WAVCIS:CSI15:1,2010-08-09T01:00:00Z,28.8332,-90.8320,10.0,3.637,228.0,,'11111222,11111222,99999999' 
WAVCIS,ioos:station:WAVCIS:CSI15:1,2010-08-09T02:00:00Z,28.8332,-90.8320,10.0,3.371,239.0,,'11111222,11111222,99999999' 
WAVCIS,ioos:station:WAVCIS:CSI15:1,2010-08-09T03:00:00Z,28.8332,-90.8320,10.0,3.38,217.0,,'11111222,11111222,99999999' 
WAVCIS,ioos:station:WAVCIS:CSI15:1,2010-08-09T04:00:00Z,28.8332,-90.8320,10.0,2.499,206.0,,'11111222,11111222,99999999' 